TimeEST,TemperatureF,Dew PointF,Humidity,Sea Level PressureIn,VisibilityMPH,Wind Direction,Wind SpeedMPH,Gust SpeedMPH,PrecipitationIn,Events,Conditions,WindDirDegrees,DateUTC
12:51 AM,46.9,34.0,61,30.20,10.0,WNW,8.1,-,N/A,,Overcast,300,2011-12-10 05:51:00
1:51 AM,46.0,33.1,61,30.19,10.0,NW,9.2,-,N/A,,Overcast,310,2011-12-10 06:51:00
2:51 AM,45.0,30.9,58,30.19,10.0,NW,5.8,-,N/A,,Overcast,310,2011-12-10 07:51:00
3:51 AM,44.1,30.9,60,30.18,10.0,NW,8.1,-,N/A,,Overcast,310,2011-12-10 08:51:00
4:51 AM,44.1,28.9,55,30.19,10.0,NW,10.4,-,N/A,,Overcast,310,2011-12-10 09:51:00
5:51 AM,42.1,28.9,60,30.20,10.0,NW,10.4,-,N/A,,Overcast,310,2011-12-10 10:51:00
6:51 AM,42.1,27.0,55,30.22,10.0,NNW,10.4,-,N/A,,Overcast,330,2011-12-10 11:51:00
7:51 AM,41.0,28.0,60,30.25,10.0,WNW,10.4,-,N/A,,Mostly Cloudy,300,2011-12-10 12:51:00
8:51 AM,41.0,28.0,60,30.27,10.0,NW,13.8,19.6,N/A,,Mostly Cloudy,310,2011-12-10 13:51:00
9:51 AM,42.1,28.0,58,30.29,10.0,NW,15.0,-,N/A,,Mostly Cloudy,320,2011-12-10 14:51:00
10:51 AM,44.1,28.0,53,30.28,10.0,NW,12.7,23.0,N/A,,Mostly Cloudy,320,2011-12-10 15:51:00
11:51 AM,42.1,27.0,55,30.28,10.0,NW,19.6,24.2,N/A,,Mostly Cloudy,320,2011-12-10 16:51:00
12:51 PM,41.0,23.0,49,30.28,10.0,NW,18.4,-,N/A,,Mostly Cloudy,320,2011-12-10 17:51:00
1:51 PM,41.0,19.4,42,30.28,10.0,NNW,12.7,-,N/A,,Mostly Cloudy,330,2011-12-10 18:51:00
2:51 PM,41.0,17.1,38,30.28,10.0,NNW,16.1,-,N/A,,Scattered Clouds,330,2011-12-10 19:51:00
3:51 PM,39.9,16.0,38,30.31,10.0,North,13.8,-,N/A,,Scattered Clouds,350,2011-12-10 20:51:00
4:51 PM,37.9,16.0,41,30.34,10.0,NNW,16.1,21.9,N/A,,Scattered Clouds,330,2011-12-10 21:51:00
5:51 PM,37.0,15.1,41,30.37,10.0,NW,15.0,23.0,N/A,,Partly Cloudy,310,2011-12-10 22:51:00
6:51 PM,36.0,14.0,41,30.39,10.0,NNW,13.8,24.2,N/A,,Clear,330,2011-12-10 23:51:00
7:51 PM,35.1,12.9,40,30.43,10.0,NNW,12.7,20.7,N/A,,Clear,340,2011-12-11 00:51:00
8:51 PM,35.1,10.9,37,30.46,10.0,NNW,13.8,-,N/A,,Clear,330,2011-12-11 01:51:00
9:51 PM,34.0,10.9,38,30.47,10.0,NNW,11.5,-,N/A,,Clear,340,2011-12-11 02:51:00
10:51 PM,34.0,10.9,38,30.49,10.0,NNW,9.2,-,N/A,,Clear,340,2011-12-11 03:51:00
11:51 PM,33.1,10.9,40,30.51,10.0,NNW,10.4,-,N/A,,Clear,330,2011-12-11 04:51:00